| time (UTC) | temp F | wind direction | speed knots | gust knots | rain 1hr in | rain 24hr in | rain mn in | humidity % | barometer mb |
| 20260504151030 | 55 | 246 | 7.0 | 16.5 | 0.00 | 0.00 | 0.00 | 49 | 1007.6 |
| 20260504150533 | 55 | 249 | 7.0 | 15.6 | 0.00 | 0.00 | 0.00 | 50 | 1007.7 |
| 20260504141033 | 51 | 236 | 10.4 | 20.0 | 0.00 | 0.00 | 0.00 | 51 | 1007.7 |
| 20260504140529 | 52 | 261 | 8.7 | 20.0 | 0.00 | 0.00 | 0.00 | 51 | 1007.7 |
| 20260504130530 | 49 | 214 | 7.0 | 20.9 | 0.00 | 0.00 | 0.00 | 54 | 1007.9 |
| 20260504110529 | 43 | 211 | 7.8 | 23.5 | 0.00 | 0.00 | 0.00 | 63 | 1007.8 |
| 20260504100528 | 42 | 229 | 7.0 | 14.8 | 0.00 | 0.00 | 0.00 | 66 | 1007.7 |
| 20260504081554 | 41 | 211 | 6.1 | 11.3 | 0.00 | 0.00 | 0.00 | 77 | 1008.1 |
| 20260504081032 | 41 | 275 | 3.5 | 11.3 | 0.00 | 0.00 | 0.00 | 79 | 1008.1 |
| 20260504080532 | 41 | 241 | 3.5 | 11.3 | 0.00 | 0.00 | 0.00 | 79 | 1008.2 |
| 20260504080104 | 41 | 257 | 3.5 | 11.3 | 0.00 | 0.00 | 0.00 | 79 | 1008.0 |
| 20260504050531 | 40 | 272 | 3.5 | 10.4 | 0.00 | 0.00 | 0.00 | 74 | 1008.5 |
| 20260504045530 | 40 | 238 | 4.3 | 10.4 | 0.00 | 0.00 | 0.00 | 69 | 1008.4 |
| 20260504045030 | 40 | 224 | 4.3 | 9.6 | 0.00 | 0.00 | 0.00 | 68 | 1008.5 |
| 20260504044542 | 40 | 241 | 4.3 | 11.3 | 0.00 | 0.00 | 0.00 | 67 | 1008.5 |
| 20260504044030 | 40 | 270 | 3.5 | 11.3 | 0.00 | 0.00 | 0.00 | 66 | 1008.5 |
| 20260504043530 | 40 | 219 | 2.6 | 10.4 | 0.00 | 0.00 | 0.00 | 66 | 1008.5 |
| 20260504043043 | 40 | 257 | 2.6 | 10.4 | 0.00 | 0.00 | 0.00 | 66 | 1008.4 |
| 20260504042531 | 40 | 223 | 3.5 | 9.6 | 0.00 | 0.00 | 0.00 | 65 | 1008.5 |
| 20260504042030 | 40 | 205 | 3.5 | 9.6 | 0.00 | 0.00 | 0.00 | 65 | 1008.6 |
| 20260504041543 | 40 | 242 | 3.5 | 9.6 | 0.00 | 0.00 | 0.00 | 65 | 1008.4 |
| 20260504041028 | 40 | 235 | 3.5 | 15.6 | 0.00 | 0.00 | 0.00 | 65 | 1008.4 |
| 20260504040528 | 40 | 245 | 4.3 | 15.6 | 0.00 | 0.00 | 0.00 | 64 | 1008.4 |
| 20260504040100 | 40 | 261 | 5.2 | 14.8 | 0.00 | 0.00 | 0.00 | 63 | 1008.1 |
| 20260504035530 | 40 | 243 | 2.6 | 10.4 | 0.00 | 0.00 | 0.00 | 63 | 1008.3 |
| 20260504035028 | 40 | 234 | 4.3 | 10.4 | 0.00 | 0.00 | 0.00 | 62 | 1008.2 |
| 20260504034538 | 40 | 191 | 5.2 | 8.7 | 0.00 | 0.00 | 0.00 | 61 | 1008.2 |
| 20260504034028 | 40 | 257 | 3.5 | 13.9 | 0.00 | 0.00 | 0.00 | 60 | 1008.1 |
| 20260504033529 | 40 | 252 | 4.3 | 13.9 | 0.00 | 0.00 | 0.00 | 59 | 1007.9 |
| 20260504033045 | 40 | 246 | 4.3 | 10.4 | 0.00 | 0.00 | 0.00 | 58 | 1007.9 |
| 20260504032550 | 40 | 279 | 3.5 | 10.4 | 0.00 | 0.00 | 0.00 | 56 | 1007.9 |
| 20260504032032 | 40 | 238 | 4.3 | 10.4 | 0.00 | 0.00 | 0.00 | 55 | 1007.9 |
| 20260504031543 | 40 | 261 | 4.3 | 13.9 | 0.00 | 0.00 | 0.00 | 54 | 1008.0 |
| 20260504031031 | 40 | 257 | 6.1 | 13.9 | 0.00 | 0.00 | 0.00 | 54 | 1008.0 |
| 20260504030534 | 39 | 241 | 4.3 | 11.3 | 0.00 | 0.00 | 0.00 | 54 | 1007.9 |
| 20260504030044 | 39 | 254 | 4.3 | 11.3 | 0.00 | 0.00 | 0.00 | 54 | 1008.0 |
| 20260504025532 | 39 | 224 | 3.5 | 8.7 | 0.00 | 0.00 | 0.00 | 54 | 1007.9 |
| 20260504025033 | 39 | 239 | 4.3 | 9.6 | 0.00 | 0.00 | 0.00 | 54 | 1007.9 |
| 20260504024542 | 39 | 244 | 4.3 | 9.6 | 0.00 | 0.00 | 0.00 | 53 | 1007.8 |
| 20260504024033 | 39 | 259 | 4.3 | 9.6 | 0.00 | 0.00 | 0.00 | 53 | 1007.9 |
| 20260504023532 | 39 | 252 | 3.5 | 8.7 | 0.00 | 0.00 | 0.00 | 53 | 1008.0 |
| 20260504023053 | 39 | 219 | 3.5 | 8.7 | 0.00 | 0.00 | 0.00 | 53 | 1008.1 |
| 20260504022535 | 39 | 251 | 3.5 | 12.2 | 0.00 | 0.00 | 0.00 | 53 | 1008.2 |
| 20260504022031 | 39 | 247 | 4.3 | 12.2 | 0.00 | 0.00 | 0.00 | 53 | 1008.2 |
| 20260504021545 | 39 | 253 | 5.2 | 10.4 | 0.00 | 0.00 | 0.00 | 53 | 1008.2 |
| 20260504021031 | 39 | 238 | 4.3 | 13.0 | 0.00 | 0.00 | 0.00 | 52 | 1008.1 |
| 20260504020531 | 39 | 245 | 3.5 | 13.0 | 0.00 | 0.00 | 0.00 | 53 | 1008.1 |
| 20260504020045 | 40 | 244 | 3.5 | 13.0 | 0.00 | 0.00 | 0.00 | 52 | 1008.2 |
| 20260504015531 | 40 | 235 | 4.3 | 13.0 | 0.00 | 0.00 | 0.00 | 52 | 1008.1 |
| 20260504015032 | 40 | 265 | 4.3 | 11.3 | 0.00 | 0.00 | 0.00 | 51 | 1008.1 |
| 20260504014556 | 40 | 224 | 4.3 | 13.9 | 0.00 | 0.00 | 0.00 | 51 | 1008.0 |
| 20260504014031 | 40 | 251 | 5.2 | 13.9 | 0.00 | 0.00 | 0.00 | 51 | 1008.0 |
| 20260504013532 | 40 | 253 | 4.3 | 10.4 | 0.00 | 0.00 | 0.00 | 51 | 1007.9 |
| 20260504013044 | 40 | 240 | 5.2 | 10.4 | 0.00 | 0.00 | 0.00 | 50 | 1007.9 |
| 20260504012536 | 40 | 263 | 5.2 | 12.2 | 0.00 | 0.00 | 0.00 | 50 | 1007.7 |
| 20260504012032 | 40 | 258 | 6.1 | 12.2 | 0.00 | 0.00 | 0.00 | 49 | 1007.8 |
| 20260504011541 | 40 | 265 | 6.1 | 11.3 | 0.00 | 0.00 | 0.00 | 49 | 1007.7 |
| 20260504011032 | 40 | 255 | 6.1 | 10.4 | 0.00 | 0.00 | 0.00 | 49 | 1007.7 |
| 20260504010531 | 40 | 245 | 5.2 | 11.3 | 0.00 | 0.00 | 0.00 | 49 | 1007.7 |
| 20260504010050 | 40 | 232 | 4.3 | 11.3 | 0.00 | 0.00 | 0.00 | 48 | 1007.6 |
| 20260504005535 | 40 | 242 | 4.3 | 10.4 | 0.00 | 0.00 | 0.00 | 47 | 1007.6 |
| 20260504005032 | 40 | 267 | 6.1 | 10.4 | 0.00 | 0.00 | 0.00 | 46 | 1007.5 |
| 20260504004550 | 40 | 245 | 5.2 | 11.3 | 0.00 | 0.00 | 0.00 | 47 | 1007.3 |
| 20260504004031 | 41 | 240 | 5.2 | 14.8 | 0.00 | 0.00 | 0.00 | 46 | 1007.4 |
| 20260504003534 | 41 | 259 | 6.1 | 14.8 | 0.00 | 0.00 | 0.00 | 45 | 1007.2 |
| 20260504003054 | 41 | 165 | 6.1 | 12.2 | 0.00 | 0.00 | 0.00 | 44 | 1007.2 |
| 20260504002529 | 41 | 257 | 5.2 | 12.2 | 0.00 | 0.00 | 0.00 | 45 | 1007.1 |
| 20260504002030 | 41 | 253 | 4.3 | 12.2 | 0.00 | 0.00 | 0.00 | 44 | 1007.1 |
| 20260504001600 | 41 | 261 | 3.5 | 8.7 | 0.00 | 0.00 | 0.00 | 45 | 1007.0 |
| 20260504001031 | 41 | 238 | 3.5 | 7.8 | 0.00 | 0.00 | 0.00 | 45 | 1007.1 |
| 20260504000530 | 41 | 236 | 2.6 | 7.8 | 0.00 | 0.00 | 0.00 | 46 | 1006.9 |
| 20260504000052 | 41 | 250 | 2.6 | 10.4 | 0.00 | 0.00 | 0.00 | 46 | 1007.0 |
| 20260503235529 | 41 | 257 | 2.6 | 10.4 | 0.00 | 0.00 | 0.00 | 45 | 1006.8 |
| 20260503235032 | 42 | 259 | 2.6 | 7.8 | 0.00 | 0.00 | 0.00 | 46 | 1006.8 |
| 20260503234543 | 42 | 248 | 4.3 | 8.7 | 0.00 | 0.00 | 0.00 | 46 | 1006.6 |
| 20260503234029 | 42 | 247 | 3.5 | 9.6 | 0.00 | 0.00 | 0.00 | 45 | 1006.6 |
| 20260503233531 | 43 | 267 | 4.3 | 12.2 | 0.00 | 0.00 | 0.00 | 44 | 1006.6 |
| 20260503233045 | 43 | 259 | 4.3 | 12.2 | 0.00 | 0.00 | 0.00 | 43 | 1006.6 |
| 20260503232532 | 43 | 211 | 4.3 | 10.4 | 0.00 | 0.00 | 0.00 | 44 | 1006.6 |
| 20260503232030 | 43 | 249 | 4.3 | 10.4 | 0.00 | 0.00 | 0.00 | 44 | 1006.5 |
| 20260503231546 | 43 | 254 | 5.2 | 10.4 | 0.00 | 0.00 | 0.00 | 42 | 1006.4 |
| 20260503231030 | 44 | 246 | 5.2 | 10.4 | 0.00 | 0.00 | 0.00 | 43 | 1006.4 |
| 20260503230530 | 44 | 257 | 5.2 | 10.4 | 0.00 | 0.00 | 0.00 | 42 | 1006.4 |
| 20260503230045 | 44 | 261 | 5.2 | 11.3 | 0.00 | 0.00 | 0.00 | 43 | 1006.5 |
| 20260503225529 | 44 | 229 | 3.5 | 11.3 | 0.00 | 0.00 | 0.00 | 44 | 1006.4 |
| 20260503225033 | 44 | 265 | 5.2 | 11.3 | 0.00 | 0.00 | 0.00 | 43 | 1006.4 |
| 20260503224545 | 44 | 240 | 3.5 | 10.4 | 0.00 | 0.00 | 0.00 | 44 | 1006.4 |
| 20260503224029 | 43 | 262 | 4.3 | 11.3 | 0.00 | 0.00 | 0.00 | 45 | 1006.4 |
| 20260503223531 | 43 | 269 | 6.1 | 11.3 | 0.00 | 0.00 | 0.00 | 45 | 1006.4 |
| 20260503223044 | 43 | 265 | 3.5 | 16.5 | 0.00 | 0.00 | 0.00 | 45 | 1006.4 |
| 20260503222530 | 43 | 244 | 7.0 | 16.5 | 0.00 | 0.00 | 0.00 | 45 | 1006.4 |
| 20260503222035 | 43 | 238 | 6.1 | 15.6 | 0.00 | 0.00 | 0.00 | 44 | 1006.2 |
| 20260503221546 | 43 | 276 | 6.1 | 15.6 | 0.00 | 0.00 | 0.00 | 44 | 1006.4 |
| 20260503221032 | 44 | 236 | 7.8 | 15.6 | 0.00 | 0.00 | 0.00 | 44 | 1006.4 |
| 20260503220533 | 44 | 269 | 6.1 | 12.2 | 0.00 | 0.00 | 0.00 | 45 | 1006.3 |
| 20260503220049 | 44 | 214 | 6.1 | 12.2 | 0.00 | 0.00 | 0.00 | 45 | 1006.4 |
| 20260503215528 | 44 | 263 | 6.1 | 20.9 | 0.00 | 0.00 | 0.00 | 44 | 1006.5 |
| 20260503215031 | 44 | 235 | 5.2 | 20.9 | 0.00 | 0.00 | 0.00 | 45 | 1006.4 |
| 20260503214545 | 44 | 229 | 6.1 | 14.8 | 0.00 | 0.00 | 0.00 | 44 | 1006.4 |
| 20260503214031 | 45 | 221 | 6.1 | 14.8 | 0.00 | 0.00 | 0.00 | 44 | 1006.4 |
| 20260503213528 | 45 | 235 | 7.0 | 14.8 | 0.00 | 0.00 | 0.00 | 43 | 1006.4 |
| 20260503213045 | 45 | 254 | 5.2 | 12.2 | 0.00 | 0.00 | 0.00 | 46 | 1006.5 |
| 20260503212529 | 44 | 225 | 5.2 | 14.8 | 0.00 | 0.00 | 0.00 | 45 | 1006.4 |
| 20260503212030 | 44 | 262 | 5.2 | 14.8 | 0.00 | 0.00 | 0.00 | 47 | 1006.4 |
| 20260503211544 | 45 | 248 | 7.0 | 14.8 | 0.00 | 0.00 | 0.00 | 43 | 1006.4 |
| 20260503211032 | 46 | 182 | 4.3 | 13.9 | 0.00 | 0.00 | 0.00 | 45 | 1006.3 |
| 20260503210533 | 44 | 238 | 5.2 | 13.9 | 0.00 | 0.00 | 0.00 | 45 | 1006.2 |
| 20260503210043 | 45 | 242 | 5.2 | 13.9 | 0.00 | 0.00 | 0.00 | 46 | 1006.1 |
| 20260503205529 | 44 | 275 | 7.0 | 13.9 | 0.00 | 0.00 | 0.00 | 45 | 1006.2 |
| 20260503205029 | 44 | 292 | 3.5 | 13.0 | 0.00 | 0.00 | 0.00 | 49 | 1006.2 |
| 20260503204543 | 42 | 246 | 5.2 | 13.0 | 0.00 | 0.00 | 0.00 | 50 | 1006.4 |
| 20260503204031 | 42 | 263 | 7.0 | 12.2 | 0.00 | 0.00 | 0.00 | 48 | 1006.2 |
| 20260503203534 | 43 | 238 | 7.0 | 11.3 | 0.00 | 0.00 | 0.00 | 48 | 1006.3 |
| 20260503203040 | 44 | 296 | 5.2 | 17.4 | 0.00 | 0.00 | 0.00 | 47 | 1006.3 |
| 20260503202532 | 45 | 250 | 5.2 | 17.4 | 0.00 | 0.00 | 0.00 | 47 | 1006.3 |
| 20260503202029 | 45 | 202 | 6.1 | 13.9 | 0.00 | 0.00 | 0.00 | 47 | 1006.2 |
| 20260503201546 | 44 | 257 | 5.2 | 13.9 | 0.00 | 0.00 | 0.00 | 46 | 1006.4 |
| 20260503201031 | 45 | 239 | 5.2 | 14.8 | 0.00 | 0.00 | 0.00 | 46 | 1006.1 |
| 20260503200528 | 44 | 266 | 7.0 | 15.6 | 0.00 | 0.00 | 0.00 | 46 | 1006.2 |
| 20260503200050 | 44 | 227 | 7.0 | 15.6 | 0.00 | 0.00 | 0.00 | 46 | 1006.3 |
| 20260503195531 | 43 | 201 | 6.1 | 13.0 | 0.00 | 0.00 | 0.00 | 47 | 1006.2 |
| 20260503195034 | 44 | 223 | 5.2 | 17.4 | 0.00 | 0.00 | 0.00 | 47 | 1006.4 |
| 20260503194543 | 44 | 258 | 6.1 | 17.4 | 0.00 | 0.00 | 0.00 | 48 | 1006.3 |
| 20260503194029 | 44 | 252 | 9.6 | 17.4 | 0.00 | 0.00 | 0.00 | 45 | 1006.3 |
| 20260503193533 | 45 | 244 | 6.1 | 13.0 | 0.00 | 0.00 | 0.00 | 47 | 1006.2 |
| 20260503193045 | 43 | 235 | 7.0 | 13.9 | 0.00 | 0.00 | 0.00 | 48 | 1006.4 |
| 20260503192529 | 42 | 257 | 6.1 | 17.4 | 0.00 | 0.00 | 0.00 | 49 | 1006.5 |
| 20260503192031 | 42 | 250 | 6.1 | 17.4 | 0.00 | 0.00 | 0.00 | 48 | 1006.6 |
| 20260503191549 | 43 | 257 | 6.1 | 16.5 | 0.00 | 0.00 | 0.00 | 48 | 1006.4 |
| 20260503191031 | 43 | 282 | 8.7 | 17.4 | 0.00 | 0.00 | 0.00 | 46 | 1006.4 |
| 20260503190531 | 42 | 241 | 8.7 | 17.4 | 0.00 | 0.00 | 0.00 | 48 | 1006.5 |
| 20260503190043 | 42 | 242 | 5.2 | 14.8 | 0.00 | 0.00 | 0.00 | 48 | 1006.4 |
| 20260503185530 | 43 | 254 | 7.0 | 14.8 | 0.00 | 0.00 | 0.00 | 49 | 1006.5 |
| 20260503185032 | 42 | 247 | 5.2 | 13.0 | 0.00 | 0.00 | 0.00 | 50 | 1006.5 |
| 20260503184545 | 41 | 259 | 7.0 | 15.6 | 0.00 | 0.00 | 0.00 | 50 | 1006.4 |
| 20260503184032 | 41 | 257 | 7.8 | 20.0 | 0.00 | 0.00 | 0.00 | 50 | 1006.5 |
| 20260503183529 | 41 | 252 | 8.7 | 20.0 | 0.00 | 0.00 | 0.00 | 49 | 1006.5 |
| 20260503183102 | 41 | 263 | 8.7 | 15.6 | 0.00 | 0.00 | 0.00 | 50 | 1006.5 |
| 20260503182532 | 41 | 236 | 7.0 | 14.8 | 0.00 | 0.00 | 0.00 | 49 | 1006.5 |
| 20260503182031 | 42 | 236 | 7.8 | 15.6 | 0.00 | 0.00 | 0.00 | 51 | 1006.4 |
| 20260503181608 | 42 | 273 | 8.7 | 17.4 | 0.00 | 0.00 | 0.00 | 51 | 1006.5 |
| 20260503181031 | 41 | 227 | 7.8 | 20.0 | 0.00 | 0.00 | 0.00 | 51 | 1006.4 |
| 20260503180603 | 41 | 246 | 8.7 | 20.0 | 0.00 | 0.00 | 0.00 | 51 | 1006.2 |
| 20260503180043 | 40 | 258 | 4.3 | 20.0 | 0.00 | 0.00 | 0.00 | 53 | 1006.4 |
| 20260503175531 | 40 | 267 | 7.0 | 20.0 | 0.00 | 0.00 | 0.00 | 53 | 1006.4 |
| 20260503175029 | 40 | 296 | 9.6 | 20.0 | 0.00 | 0.00 | 0.00 | 53 | 1006.4 |
| 20260503174543 | 41 | 252 | 7.8 | 15.6 | 0.00 | 0.00 | 0.00 | 52 | 1006.2 |
| 20260503174029 | 41 | 227 | 4.3 | 10.4 | 0.00 | 0.00 | 0.00 | 55 | 1006.5 |
| 20260503173529 | 41 | 205 | 5.2 | 13.0 | 0.00 | 0.00 | 0.00 | 55 | 1006.2 |
| 20260503173039 | 40 | 273 | 6.1 | 13.0 | 0.00 | 0.00 | 0.00 | 54 | 1006.4 |
| 20260503172534 | 41 | 238 | 5.2 | 20.9 | 0.00 | 0.00 | 0.00 | 53 | 1006.3 |
| 20260503172034 | 40 | 261 | 7.0 | 20.9 | 0.00 | 0.00 | 0.00 | 52 | 1006.4 |
| 20260503171547 | 41 | 307 | 7.0 | 13.0 | 0.00 | 0.00 | 0.00 | 52 | 1006.4 |
| 20260503171030 | 42 | 279 | 6.1 | 17.4 | 0.00 | 0.00 | 0.00 | 51 | 1006.2 |
| 20260503170529 | 41 | 319 | 7.0 | 17.4 | 0.00 | 0.00 | 0.00 | 51 | 1006.3 |